K0RGI Weather Reports


Display with metric or nautical units.
time (UTC)temp
F
wind
direction
speed
MPH
gust
MPH
rain 1hr
in
rain 24hr
in
rain mn
in
humidity
%
barometer
mb
20260504002514 60 265 0.0 0.0 0.00 0.00 0.00 54 1018.1
20260504001515 61 273 0.0 0.0 0.00 0.00 0.00 53 1018.2
20260504000514 62 272 0.0 0.0 0.00 0.00 0.00 51 1018.0
20260503235515 62 266 0.0 0.0 0.00 0.00 0.00 49 1018.2
20260503234515 63 265 0.0 0.0 0.00 0.00 0.00 48 1018.3
20260503233509 63 263 1.0 2.0 0.00 0.00 0.00 46 1018.3
20260503232508 63 263 0.0 1.0 0.00 0.00 0.00 45 1018.6
20260503231503 64 277 0.0 0.0 0.00 0.00 0.00 44 1018.6
20260503230502 65 270 2.0 3.0 0.00 0.00 0.00 42 1018.6
20260503225503 64 269 1.0 1.0 0.00 0.00 0.00 42 1018.9
20260503224501 64 210 2.0 2.0 0.00 0.00 0.00 42 1018.8
20260503223457 64 270 0.0 1.0 0.00 0.00 0.00 41 1018.8
20260503222456 65 229 3.0 3.0 0.00 0.00 0.00 43 1018.8
20260503221452 65 269 1.0 1.0 0.00 0.00 0.00 41 1018.9
20260503220451 65 283 2.0 2.0 0.00 0.00 0.00 40 1019.0
20260503215451 65 306 1.0 1.0 0.00 0.00 0.00 38 1019.5
20260503214446 65 298 1.0 2.0 0.00 0.00 0.00 41 1019.3
20260503213442 65 276 4.0 5.0 0.00 0.00 0.00 41 1019.2
20260503212441 65 302 1.0 2.0 0.00 0.00 0.00 40 1019.6
20260503211441 65 271 4.0 5.0 0.00 0.00 0.00 39 1019.6
20260503210439 67 277 1.0 1.0 0.00 0.00 0.00 37 1019.5
20260503205437 68 246 1.0 2.0 0.00 0.00 0.00 36 1019.8
20260503204436 66 283 3.0 5.0 0.00 0.00 0.00 39 1020.0
20260503203436 67 289 1.0 1.0 0.00 0.00 0.00 38 1019.9
20260503202431 66 305 1.0 1.0 0.00 0.00 0.00 42 1020.1
20260503201426 65 282 1.0 1.0 0.00 0.00 0.00 42 1020.2
20260503200426 66 277 3.0 5.0 0.00 0.00 0.00 38 1020.5
20260503195420 67 283 1.0 1.0 0.00 0.00 0.00 40 1020.6
20260503194419 66 297 1.0 1.0 0.00 0.00 0.00 42 1021.0
20260503193416 67 306 2.0 2.0 0.00 0.00 0.00 40 1021.3
20260503192414 65 213 2.0 2.0 0.00 0.00 0.00 40 1021.3
20260503191413 65 260 3.0 3.0 0.00 0.00 0.00 40 1021.3
20260503190413 66 297 1.0 2.0 0.00 0.00 0.00 40 1021.4
20260503185412 65 318 1.0 1.0 0.00 0.00 0.00 40 1021.6
20260503184408 64 294 1.0 1.0 0.00 0.00 0.00 39 1021.3
20260503183406 65 306 1.0 2.0 0.00 0.00 0.00 40 1021.4
20260503182402 64 264 0.0 1.0 0.00 0.00 0.00 40 1022.1
20260503181402 64 336 1.0 1.0 0.00 0.00 0.00 41 1022.0
20260503180403 64 220 1.0 2.0 0.00 0.00 0.00 47 1022.1
20260503175357 62 315 0.0 1.0 0.00 0.00 0.00 43 1022.3
20260503174356 62 212 2.0 2.0 0.00 0.00 0.00 43 1022.4
20260503173353 62 312 2.0 2.0 0.00 0.00 0.00 45 1022.6
20260503172353 62 258 1.0 2.0 0.00 0.00 0.00 42 1022.6
20260503171352 62 183 2.0 2.0 0.00 0.00 0.00 43 1022.7
20260503170352 61 15 1.0 2.0 0.00 0.00 0.00 46 1023.0
20260503150321 57 319 1.0 1.0 0.00 0.00 0.00 45 1023.7
20260503140309 55 278 1.0 1.0 0.00 0.00 0.00 58 1023.6
20260503131250 53 351 2.0 2.0 0.00 0.00 0.00 65 1023.8
20260503130245 52 326 2.0 2.0 0.00 0.00 0.00 64 1023.4
20260503110223 42 319 0.0 0.0 0.00 0.00 0.00 89 1022.2
20260503100207 44 319 1.0 1.0 0.00 0.00 0.00 90 1021.7
20260503090153 44 320 0.0 0.0 0.00 0.00 0.00 90 1021.5
20260503081144 46 321 1.0 1.0 0.00 0.00 0.00 86 1021.0
20260503080143 46 319 0.0 0.0 0.00 0.00 0.00 85 1021.1
20260503072134 46 314 0.0 0.0 0.00 0.00 0.00 84 1020.7
20260503071133 46 314 0.0 0.0 0.00 0.00 0.00 83 1020.3
20260503070129 47 314 0.0 0.0 0.00 0.00 0.00 82 1020.5
20260503060115 50 306 1.0 1.0 0.00 0.00 0.00 74 1020.4
20260503055113 49 305 0.0 1.0 0.00 0.00 0.00 74 1020.2
20260503054112 49 305 0.0 1.0 0.00 0.00 0.00 75 1020.2
20260503053108 49 304 0.0 0.0 0.00 0.00 0.00 76 1019.9
20260503052106 49 304 0.0 0.0 0.00 0.00 0.00 75 1019.9
20260503051105 50 304 0.0 0.0 0.00 0.00 0.00 73 1020.0
20260503050105 50 304 0.0 1.0 0.00 0.00 0.00 73 1019.8
20260503045104 51 307 0.0 0.0 0.00 0.00 0.00 70 1020.0
20260503044059 50 310 1.0 1.0 0.00 0.00 0.00 71 1020.1
20260503043058 50 301 0.0 1.0 0.00 0.00 0.00 71 1019.8
20260503042056 50 301 0.0 0.0 0.00 0.00 0.00 71 1020.0
20260503041051 51 301 0.0 0.0 0.00 0.00 0.00 68 1019.7
20260503040051 52 301 0.0 1.0 0.00 0.00 0.00 69 1019.6
20260503035046 52 301 0.0 0.0 0.00 0.00 0.00 67 1019.8
20260503034046 53 301 0.0 0.0 0.00 0.00 0.00 66 1019.6
20260503033041 53 301 1.0 1.0 0.00 0.00 0.00 64 1019.7
20260503032036 53 303 0.0 0.0 0.00 0.00 0.00 63 1019.9
20260503031031 54 314 1.0 1.0 0.00 0.00 0.00 62 1019.9
20260503030030 54 306 1.0 1.0 0.00 0.00 0.00 62 1019.8
20260503025025 55 321 1.0 2.0 0.00 0.00 0.00 62 1019.6
20260503024024 55 299 1.0 1.0 0.00 0.00 0.00 63 1019.3
20260503023024 55 310 2.0 2.0 0.00 0.00 0.00 62 1019.1
20260503022021 55 306 0.0 0.0 0.00 0.00 0.00 61 1018.9
20260503021021 55 241 2.0 3.0 0.00 0.00 0.00 61 1019.2
20260503020020 55 297 2.0 2.0 0.00 0.00 0.00 60 1018.8
20260503015020 55 252 0.0 0.0 0.00 0.00 0.00 59 1018.7
20260503014020 55 310 1.0 1.0 0.00 0.00 0.00 60 1018.7
20260503013015 54 289 1.0 1.0 0.00 0.00 0.00 62 1018.3
20260503012014 53 280 0.0 0.0 0.00 0.00 0.00 63 1018.1
20260503011014 53 280 0.0 0.0 0.00 0.00 0.00 63 1018.0
20260503010014 53 280 0.0 0.0 0.00 0.00 0.00 62 1017.8
20260503005014 54 280 0.0 0.0 0.00 0.00 0.00 60 1017.8
20260503004014 55 280 0.0 0.0 0.00 0.00 0.00 59 1017.6
20260503003014 56 298 0.0 0.0 0.00 0.00 0.00 57 1017.6